Hourly Data Report for July 31, 2021

KENORA A
ONTARIO
Current Station Operator: NAVCAN

49°47'18.000" N
94°21'47.000" W
409.70 m
6034076
71850
YQK

Download Data

Hourly Data (July 2021)
Hourly Data Report for July 31, 2021
TIME
LST
Temp Definition
°C
Dew Point Definition
°C
Rel Hum Definition
%
Precip. Amount Definition
mm

Wind Dir Definition
10's deg

Wind Spd Definition
km/h
Visibility Definition
km
Stn Press Definition
kPa
Hmdx Definition


Wind Chill Definition


Weather Definition


00:00 17.2 15.4 89   2 7 24.1 96.73     Mostly Cloudy
01:00 16.8 14.9 88   35 5 32.2 96.73     LegendNANA
02:00 17.2 14.1 82   34 5 32.2 96.76     LegendNANA
03:00 17.2 15.4 89   31 16 24.1 96.76     Mainly Clear
04:00 16.6 14.5 87   30 12 24.1 96.81     LegendNANA
05:00 16.4 14.5 89   30 12 9.7 96.82     Smoke
06:00 15.9 14.7 92   31 12 4.8 96.87     Smoke
07:00 16.6 14.9 90   35 8 3.2 96.92     Smoke
08:00 17.9 15.0 83   36 11 3.2 96.97     Smoke
09:00 19.6 15.3 76   34 12 3.6 97.01     Smoke
10:00 21.0 14.4 65   33 15 4.8 97.03 25   Smoke
11:00 22.5 11.6 50   1 16 9.7 97.06 25   Smoke
12:00 23.7 9.8 41   35 16 8.1 97.07 25   Smoke
13:00 24.0 8.1 36   33 25 8.1 97.07     Smoke
14:00 24.2 6.1 31   35 23 8.1 97.09     Smoke
15:00 24.3 6.5 31   34 21 8.1 97.10     Smoke
16:00 22.9 8.0 38   36 19 6.4 97.13     Smoke
17:00 22.1 8.2 41   36 15 4.8 97.14     Smoke
18:00 21.8 7.1 38   36 16 4.8 97.12     Smoke
19:00 20.9 6.7 39   35 9 6.4 97.15     Smoke
20:00 19.3 6.7 43   36 8 24.1 97.19     LegendNANA
21:00 18.5 5.8 43   36 10 32.2 97.24     Mostly Cloudy
22:00 17.1 6.0 48   1 10 32.2 97.29     LegendNANA
23:00 16.2 7.0 54   3 8 32.2 97.31     LegendNANA

Notes on Data Quality.

Legend

  • E = Estimated
  • M = Missing
  • NA = Not Available*
  • [empty] = Indicates an unobserved value
Date modified: